[[{"header":{"parameterUnit":"m.s-1","parameterCategory":1,"la1":30.2991,"la2":30.254,"lo1":-89.0895,"lo2":-89.0444,"dy":0.0017,"dx":0.0017,"nx":28,"ny":28,"refTime":"2024-06-16T03:00:00:Z","depth":0,"parameterNumber":2,"parameterNumberName":"U-component_of_WINDS"},"data":[0,0,0,0,0,0,0,0,0,0,0,0,0,0,0,0,0,0,0,0,0,0,0,0,0,0,0,0,0,0,0,0,0,0,0,0,0,0,0,0,0,0,0,0,0,0,0,0,0,0,0,0,0,0,0,0,0,0,-3.3182,-3.3182,0,-3.318,-3.318,-3.318,-3.3211,-3.3212,-3.3213,-3.3214,-3.3206,-3.3205,-3.3204,0,0,0,0,0,0,0,0,0,0,0,0,0,-3.3209,-3.3208,-3.3182,-3.3182,-3.3182,-3.318,-3.318,-3.318,-3.3211,-3.3212,-3.3213,-3.3214,-3.3206,-3.3205,-3.3203,0,0,0,0,0,0,0,0,0,0,0,0,0,-3.3201,-3.3208,-3.3182,-3.3198,-3.3199,-3.318,-3.318,-3.318,-3.3211,-3.3212,-3.3213,-3.3215,-3.3206,-3.3205,-3.3203,-3.3168,0,0,-3.3199,-3.3198,0,0,0,0,0,0,0,0,-3.3201,-3.32,-3.3196,-3.3197,-3.3198,-3.3197,-3.3187,-3.3176,-3.321,-3.3206,-3.3214,-3.3215,-3.3201,-3.32,-3.3197,-3.3168,-3.3167,-3.3199,-3.3198,-3.3197,-3.3196,0,0,0,0,0,0,0,-3.3202,-3.32,-3.3181,-3.3195,-3.3197,-3.3203,-3.3203,-3.3185,-3.3196,-3.3207,-3.3209,-3.3209,-3.3202,-3.3198,-3.3197,-3.3167,-3.3199,-3.3197,-3.3196,-3.3196,-3.3108,-3.3107,0,0,0,0,0,0,-3.3201,-3.3201,-3.3181,-3.3181,-3.3203,-3.3202,-3.3202,-3.3196,-3.3197,-3.3198,-3.3207,-3.321,-3.32,-3.3199,-3.3197,-3.3155,-3.3197,-3.3195,-3.3195,-3.311,-3.3108,-3.3106,0,0,0,0,0,0,-3.3202,-3.3199,-3.3182,-3.3192,-3.319,-3.32,-3.3193,-3.3195,-3.3192,-3.3197,-3.3199,-3.3201,-3.3201,-3.3199,-3.3175,-3.3155,-3.3195,-3.3193,-3.3111,-3.3109,-3.3107,-3.3071,0,0,0,0,0,0,-3.3202,-3.3199,-3.3187,-3.3191,-3.3189,-3.3161,-3.3192,-3.3195,-3.319,-3.3193,-3.3192,-3.3193,-3.3202,-3.3177,-3.3174,-3.3154,-3.3192,-3.3113,-3.311,-3.3108,-3.3074,-3.3068,-3.3063,0,0,0,0,0,-3.3203,-3.3176,-3.3186,-3.3184,-3.3174,-3.316,-3.3159,-3.3171,-3.3188,-3.3175,-3.3179,-3.3193,-3.3158,-3.3175,-3.3171,-3.315,-3.3114,-3.3111,-3.3108,-3.3077,-3.3069,-3.3063,0,0,0,0,0,0,-3.3166,-3.3176,-3.3188,-3.3162,-3.316,-3.3166,-3.3149,-3.3163,-3.3155,-3.3158,-3.3172,-3.3172,-3.3146,-3.3146,-3.3164,-3.3116,-3.3139,-3.3135,-3.3117,-3.311,-3.3104,-3.3104,-3.3191,0,0,0,0,0,-3.3156,-3.3145,-3.3154,-3.3129,-3.3128,-3.3139,-3.3133,-3.3143,-3.3141,-3.314,-3.3142,-3.3138,-3.3127,-3.3118,-3.3108,-3.3075,-3.3075,-3.3059,-3.3053,-3.3049,-3.3044,-3.3026,-3.3019,-3.3096,-3.3096,-3.3096,0,0,-3.3132,-3.3137,-3.3129,-3.3122,-3.3122,-3.3109,-3.3138,-3.3123,-3.3113,-3.3137,-3.3115,-3.3117,-3.3113,-3.3085,-3.3073,-3.3084,-3.3023,-3.3045,-3.3041,-3.3039,-3.3022,-3.3015,-3.3009,-3.3094,-3.3094,-3.3095,0,0,-3.3083,-3.3086,-3.3066,-3.3066,-3.3066,-3.3074,-3.3069,-3.3073,-3.3075,-3.3054,-3.3072,-3.306,-3.3039,-3.3036,-3.3032,-3.2983,-3.2996,-3.2979,-3.2949,-3.2931,-3.2925,-3.292,-3.2901,-3.2895,-3.2975,-3.2975,-3.2975,0,-3.3054,-3.3037,-3.3053,-3.3038,-3.3034,-3.3058,-3.3037,-3.3035,-3.3031,-3.3027,-3.3041,-3.3016,-3.3016,-3.2987,-3.2975,-3.2971,-3.2965,-3.2978,-3.2925,-3.292,-3.2915,-3.2898,-3.2891,-3.2973,-3.2973,-3.2974,-3.2974,0,-3.3,-3.2988,-3.2971,-3.2969,-3.2964,-3.2945,-3.2958,-3.295,-3.2961,-3.2966,-3.2944,-3.2944,-3.2934,-3.2929,-3.2938,-3.2901,-3.2908,-3.2923,-3.2947,-3.2906,-3.2889,-3.2883,-3.297,-3.2971,-3.2971,-3.2972,0,0,-3.2926,-3.2935,-3.2928,-3.2928,-3.293,-3.292,-3.2903,-3.2895,-3.2888,-3.2884,-3.2869,-3.2852,-3.2867,-3.2862,-3.2871,-3.2856,-3.2816,-3.2873,-3.2873,-3.2861,-3.2774,-3.2761,-3.2753,-3.2825,-3.2824,-3.2823,-3.2774,0,-3.2878,-3.285,-3.2865,-3.2834,-3.2822,-3.2845,-3.283,-3.2829,-3.2834,-3.2824,-3.2829,-3.2816,-3.2837,-3.2834,-3.282,-3.2824,-3.2798,-3.2828,-3.2809,-3.2808,-3.2808,-3.2745,-3.2731,-3.2684,-3.2767,-3.2766,-3.2766,0,-3.2817,-3.2813,-3.2782,-3.2787,-3.2783,-3.2769,-3.2763,-3.2754,-3.2753,-3.2758,-3.2753,-3.2766,-3.2748,-3.2773,-3.2747,-3.2766,-3.276,-3.276,-3.2759,-3.2756,-3.2783,-3.2739,-3.267,-3.2662,-3.2756,-3.2757,-3.2757,0,-3.2765,-3.2752,-3.2732,-3.2731,-3.2737,-3.2726,-3.2728,-3.2729,-3.2723,-3.2718,-3.2714,-3.2706,-3.27,-3.2693,-3.2703,-3.2721,-3.2675,-3.2701,-3.2677,-3.2677,-3.2665,-3.2665,-3.2592,-3.2663,-3.2663,-3.2663,-3.2664,0,-3.2709,-3.2688,-3.2709,-3.2696,-3.2673,-3.269,-3.2667,-3.2671,-3.2672,-3.2659,-3.2678,-3.2665,-3.268,-3.2669,-3.2676,-3.2653,-3.2651,-3.2653,-3.2655,-3.265,-3.265,-3.2645,-3.2648,-3.2662,-3.2662,-3.2662,-3.2663,0,-3.2646,-3.2659,-3.2638,-3.2646,-3.2648,-3.2631,-3.2637,-3.2625,-3.2632,-3.2615,-3.2612,-3.2623,-3.261,-3.262,-3.2607,-3.2613,-3.2582,-3.2589,-3.2582,-3.2584,-3.2559,-3.256,-3.2479,-3.2468,-3.2547,-3.2546,-3.2546,0,-3.2608,-3.2594,-3.2601,-3.2595,-3.2596,-3.2585,-3.258,-3.2596,-3.259,-3.2589,-3.2576,-3.2566,-3.2558,-3.2536,-3.2542,-3.2532,-3.2538,-3.251,-3.2536,-3.2532,-3.2536,-3.2536,-3.2534,-3.2504,-3.2503,-3.2502,-3.2502,0,-3.254,-3.2548,-3.2541,-3.2536,-3.253,-3.2526,-3.2524,-3.2518,-3.2534,-3.2526,-3.2515,-3.2509,-3.2497,-3.2485,-3.2478,-3.2478,-3.2492,-3.2494,-3.2488,-3.2482,-3.2479,-3.2479,-3.2566,-3.2495,-3.2496,-3.2496,-3.2497,-3.2497,-3.2488,-3.2476,-3.2479,-3.2471,-3.2471,-3.2469,-3.2458,-3.2465,-3.2456,-3.2449,-3.2458,-3.2444,-3.2443,-3.2435,-3.2433,-3.2421,-3.2432,-3.2423,-3.2421,-3.2418,-3.2414,-3.2482,-3.242,-3.242,-3.242,-3.242,-3.242,0,-3.242,-3.2424,-3.2416,-3.2413,-3.2406,-3.2423,-3.2422,-3.2414,-3.2402,-3.2401,-3.2394,-3.238,-3.237,-3.2375,-3.2365,-3.2354,-3.236,-3.2351,-3.2351,-3.2351,-3.2405,-3.2411,-3.2346,-3.2346,-3.2346,-3.2346,-3.2346,-3.2346,-3.2383,-3.2364,-3.2371,-3.2352,-3.2355,-3.2343,-3.234,-3.2338,-3.2338,-3.2322,-3.2314,-3.2319,-3.232,-3.2311,-3.2301,-3.2303,-3.2298,-3.2286,-3.229,-3.234,-3.2347,-3.2354,-3.2359,-3.2285,-3.2285,-3.2236,-3.2236,-3.2236]},{"header":{"parameterUnit":"m.s-1","parameterCategory":1,"la1":30.2991,"la2":30.254,"lo1":-89.0895,"lo2":-89.0444,"dy":0.0017,"dx":0.0017,"nx":28,"ny":28,"refTime":"2024-06-16T03:00:00:Z","depth":0,"parameterNumber":3,"parameterNumberName":"V-component_of_WINDS"},"data":[0,0,0,0,0,0,0,0,0,0,0,0,0,0,0,0,0,0,0,0,0,0,0,0,0,0,0,0,0,0,0,0,0,0,0,0,0,0,0,0,0,0,0,0,0,0,0,0,0,0,0,0,0,0,0,0,0,0,5.2425,5.2427,0,5.2593,5.2595,5.2597,5.256,5.2557,5.2554,5.2551,5.2722,5.2729,5.2737,0,0,0,0,0,0,0,0,0,0,0,0,0,5.2075,5.2081,5.2425,5.2427,5.2429,5.2593,5.2595,5.2597,5.2561,5.2557,5.2553,5.2549,5.2719,5.2728,5.2737,0,0,0,0,0,0,0,0,0,0,0,0,0,5.2233,5.2083,5.2425,5.2431,5.2433,5.2592,5.2595,5.2598,5.2561,5.2557,5.2552,5.2548,5.2717,5.2727,5.2738,5.2902,0,0,5.2773,5.2778,0,0,0,0,0,0,0,0,5.2224,5.2246,5.2428,5.2431,5.2434,5.2551,5.2534,5.27,5.2563,5.2513,5.2551,5.2545,5.2669,5.2684,5.2725,5.291,5.2917,5.2774,5.2781,5.2785,5.2789,0,0,0,0,0,0,0,5.2213,5.2239,5.2492,5.2431,5.2434,5.2426,5.2443,5.2565,5.2615,5.2517,5.2514,5.2535,5.2669,5.2715,5.2729,5.292,5.2773,5.2783,5.279,5.2795,5.3249,5.3255,0,0,0,0,0,0,5.22,5.223,5.2486,5.2497,5.2315,5.2436,5.2455,5.2518,5.2614,5.2624,5.2539,5.2532,5.2698,5.2716,5.2735,5.2934,5.2785,5.2796,5.2802,5.3244,5.3251,5.3256,0,0,0,0,0,0,5.2192,5.2223,5.2479,5.2363,5.2395,5.2447,5.2518,5.2524,5.2569,5.263,5.2639,5.2576,5.2695,5.2719,5.2861,5.294,5.2801,5.2811,5.3238,5.3246,5.3253,5.3333,0,0,0,0,0,0,5.2182,5.222,5.2283,5.2364,5.2401,5.2603,5.2522,5.253,5.2588,5.2582,5.2667,5.2677,5.2693,5.2845,5.2872,5.2953,5.282,5.3231,5.3241,5.3251,5.3324,5.3343,5.336,0,0,0,0,0,5.217,5.2298,5.2286,5.2317,5.248,5.2607,5.2628,5.2644,5.2595,5.2658,5.2698,5.2674,5.2927,5.286,5.289,5.2975,5.3226,5.3239,5.325,5.3316,5.3339,5.3359,0,0,0,0,0,0,5.2223,5.2308,5.2296,5.2454,5.2524,5.2601,5.2681,5.2668,5.2753,5.2744,5.276,5.2779,5.2925,5.2964,5.2888,5.314,5.3069,5.3088,5.3109,5.3132,5.3149,5.3137,5.2829,0,0,0,0,0,5.2253,5.235,5.2419,5.2552,5.2588,5.2629,5.2685,5.2691,5.2764,5.2793,5.2843,5.2915,5.301,5.3073,5.3164,5.3329,5.3349,5.3403,5.3421,5.3435,5.3452,5.3544,5.357,5.3296,5.3296,5.3296,0,0,5.2317,5.2375,5.2435,5.2564,5.2619,5.2719,5.2654,5.2762,5.2837,5.2809,5.2947,5.2987,5.3068,5.3223,5.3294,5.326,5.3532,5.3451,5.3462,5.347,5.3559,5.3585,5.3608,5.3304,5.3303,5.3301,0,0,5.2483,5.2537,5.2654,5.2711,5.2795,5.2822,5.285,5.293,5.2956,5.3095,5.3077,5.3166,5.333,5.3389,5.3441,5.3633,5.3615,5.3662,5.3755,5.3846,5.3867,5.3887,5.3957,5.3982,5.3678,5.3678,5.3678,0,5.2551,5.2702,5.2716,5.2827,5.2885,5.2867,5.2987,5.3041,5.315,5.3191,5.3152,5.3359,5.3412,5.3582,5.3629,5.3671,5.3705,5.3653,5.3863,5.3882,5.3901,5.3968,5.3994,5.3684,5.3683,5.3682,5.3682,0,5.2782,5.2887,5.2971,5.3079,5.3147,5.3261,5.3294,5.3361,5.3362,5.3394,5.3537,5.36,5.3705,5.3745,5.3747,5.3917,5.3893,5.3859,5.3788,5.3932,5.3996,5.4021,5.3691,5.3689,5.3688,5.3686,0,0,5.2986,5.3102,5.3133,5.3183,5.3275,5.3357,5.3471,5.3575,5.3632,5.3709,5.3807,5.3947,5.3916,5.3975,5.3983,5.4062,5.4213,5.4018,5.402,5.4054,5.4406,5.4433,5.4462,5.4201,5.4206,5.421,5.44,0,5.3163,5.3365,5.3383,5.3565,5.3663,5.3648,5.3748,5.3816,5.3849,5.3937,5.3973,5.4073,5.4023,5.4059,5.4137,5.4178,5.4284,5.4164,5.4294,5.4298,5.4275,5.4495,5.4524,5.47,5.4425,5.4429,5.4432,0,5.3395,5.3481,5.3673,5.3754,5.3796,5.3885,5.3983,5.4067,5.4144,5.4163,5.423,5.4228,5.4347,5.4272,5.4438,5.4356,5.441,5.4438,5.4446,5.4459,5.4374,5.4516,5.4756,5.4783,5.4471,5.4468,5.4465,0,5.3528,5.369,5.3827,5.3869,5.3967,5.4031,5.4074,5.4147,5.4209,5.4294,5.4334,5.4432,5.4486,5.4562,5.4587,5.453,5.4753,5.4679,5.4772,5.4772,5.4821,5.4817,5.5074,5.4853,5.4853,5.4852,5.4852,0,5.3724,5.3843,5.3888,5.3972,5.4105,5.4125,5.4256,5.4296,5.4362,5.4454,5.4446,5.4533,5.4561,5.4653,5.4673,5.4809,5.4832,5.4851,5.4856,5.4853,5.4851,5.489,5.4879,5.4859,5.4858,5.4856,5.4855,0,5.3894,5.3929,5.4077,5.4158,5.4181,5.4276,5.4345,5.4427,5.4459,5.4576,5.4605,5.4655,5.4763,5.4796,5.4926,5.494,5.5099,5.5091,5.5073,5.5074,5.5166,5.5158,5.5457,5.5499,5.5249,5.5252,5.5253,0,5.4018,5.4109,5.42,5.4262,5.4308,5.4407,5.4471,5.4494,5.4561,5.4657,5.4728,5.4835,5.4922,5.5096,5.5145,5.5245,5.524,5.5339,5.5255,5.5251,5.5244,5.5239,5.525,5.5354,5.5357,5.5359,5.5361,0,5.4234,5.4247,5.4339,5.4438,5.4514,5.4593,5.4669,5.472,5.4754,5.483,5.4941,5.5009,5.5142,5.525,5.5352,5.5397,5.5386,5.5387,5.5414,5.5413,5.54,5.541,5.5118,5.538,5.5378,5.5377,5.5376,5.5375,5.4386,5.4468,5.4545,5.4648,5.4708,5.478,5.4861,5.4904,5.4997,5.5108,5.5116,5.5237,5.5314,5.545,5.5501,5.5597,5.5568,5.5607,5.5617,5.5627,5.5636,5.5383,5.5615,5.5615,5.5614,5.5614,5.5613,0,5.4604,5.4654,5.4748,5.4856,5.4937,5.4919,5.5003,5.5073,5.5179,5.5252,5.5339,5.5468,5.5572,5.563,5.5734,5.58,5.5798,5.5827,5.5823,5.5834,5.5654,5.5621,5.5827,5.5827,5.5827,5.5827,5.5827,5.5827,5.4727,5.4865,5.4888,5.5055,5.5104,5.5222,5.5272,5.5339,5.5397,5.5542,5.5629,5.5666,5.5733,5.5843,5.5939,5.5953,5.5993,5.6025,5.6037,5.5868,5.5846,5.5825,5.5794,5.6033,5.6034,5.6209,5.621,5.6212]}]]